Tracking 19192 objects as of 19-Jun-2018
HD Live streaming from Space Station
objects crossing your sky now

FENGYUN 1C DEB

Track FENGYUN 1C DEB now!
10-day predictions


NORAD ID: 31879
Int'l Code: 1999-025CKE
Perigee: 615.3 km
Apogee: 940.8 km
Inclination: 99.7 °
Period: 100.3 minutes
Semi major axis: 7149 km
RCS: 0.0119 m2 (small)
Launch date: May 10, 1999
Source: People's Republic of China (PRC)
Launch site: Taiyaun Space Center, China (TSC)

Note: This is SATELLITE DEBRIS
aabbcc
Your satellite tracking list
Your tracking list is empty




NASA's NSSDC Master Catalog

Two Line Element Set (TLE):
1 31879U 99025CKE 18169.41378404  .00000059  00000-0  32436-4 0  9995
2 31879  99.7432  12.7971 0227660 342.6196  16.7283 14.36246339576382
Source of the keplerian elements: AFSPC